Home   Weather   Islamabad   Past weeks

Flag for Pakistan Past Weather in Islamabad, Pakistan — Yesterday and Last 2 Weeks

Now
61 °F

Passing clouds.


Feels Like: 61 °F
Forecast: 43 / 70 °F
Wind: 16 mph from Northwest

Location: Islamabad Airport

Current Time: Feb 22, 2017 at 8:32:04 pm

Latest Report: Feb 22, 2017 at 8:00 pm


Visibility: N/A

Pressure: 30.01 "Hg (28.11 "Hg at 554m altitude)

Humidity: 48%

Dew Point: 41 °F

Location of IslamabadLocation

Past Weather in Islamabad — Graph

°F

Islamabad Temperature Yesterday

Maximum temperature yesterday: 72 °F (at 1:00 pm)
Minimum temperature yesterday: 52 °F (at 6:00 am)
Average temperature yesterday: 61 °F

High & Low Weather Summary for the Past Weeks

 TemperatureHumidityPressure
High79 °F (Feb 17, 3:00 pm)87% (Feb 9, 6:00 am)30.30 "Hg (Feb 9, 6:00 am)
Low45 °F (Feb 9, 7:00 am)24% (Feb 13, 3:00 pm)29.71 "Hg (Feb 21, 3:00 am)
Average60 °F61%30.06 "Hg
* Reported Feb 7 7:00 pm — Feb 22 7:00 pm, Islamabad, Weather by CustomWeather, © 2017

Note: Actual official high and low records may vary slightly from our data, if they occured in-between our weather recording intervals... More about our weather records

Advertising

Islamabad Weather History for the Previous 24 Hours

Scroll right to see more
 ConditionsComfort  
Time TempWeatherWind HumidityBarometerVisibility
7:00 pm
Wed, Feb 22
66 °FPassing clouds.16 mph35%29.98 "HgN/A
6:30 pm66 °FPassing clouds.21 mph35%29.95 "HgN/A
5:00 pm72 °FPassing clouds.18 mph33%29.95 "HgN/A
4:00 pm72 °FPassing clouds.18 mph33%29.95 "HgN/A
3:30 pm73 °FPassing clouds.18 mph29%29.98 "HgN/A
3:00 pm73 °FPassing clouds.18 mph29%29.98 "HgN/A
2:30 pm73 °FPassing clouds.23 mph29%29.98 "HgN/A
2:00 pm73 °FPassing clouds.18 mph29%30.01 "HgN/A
1:30 pm72 °FPassing clouds.18 mph33%30.04 "HgN/A
1:00 pm72 °FPassing clouds.18 mph33%30.04 "HgN/A
12:30 pm70 °FPassing clouds.18 mph38%30.04 "HgN/A
11:00 am68 °FPassing clouds.14 mph40%30.04 "Hg5 mi
10:30 am63 °FPassing clouds.12 mph45%30.04 "Hg4 mi
10:00 am63 °FPassing clouds.7 mph45%30.04 "Hg5 mi
9:30 am59 °FPassing clouds.7 mph55%30.01 "HgN/A
9:00 am59 °FClear.7 mph55%30.01 "Hg4 mi
8:30 am52 °FClear.9 mph77%29.98 "Hg4 mi
8:00 am52 °FClear.9 mph77%29.98 "Hg4 mi
7:30 am50 °FClear.9 mph71%29.98 "Hg4 mi
7:00 am50 °FClear.5 mph71%29.98 "Hg4 mi
6:30 am48 °FClear.5 mph82%29.95 "Hg4 mi
6:00 am48 °FClear.5 mph82%29.95 "Hg4 mi
5:30 am50 °FClear.5 mph76%29.95 "Hg4 mi
5:00 am50 °FClear.5 mph76%29.95 "Hg4 mi
4:30 am54 °FClear.9 mph72%29.92 "Hg4 mi
4:00 am54 °FClear.9 mph72%29.92 "Hg4 mi
2:00 am54 °FPassing clouds.14 mph72%29.89 "Hg4 mi
1:00 am55 °FPassing clouds.14 mph67%29.89 "Hg4 mi
12:00 am55 °FPassing clouds.14 mph67%29.92 "Hg4 mi
11:30 pm
Tue, Feb 21
55 °FPassing clouds.14 mph67%29.89 "Hg4 mi
11:00 pm55 °FPassing clouds.14 mph67%29.89 "Hg4 mi
10:30 pm55 °FPassing clouds.14 mph67%29.89 "Hg4 mi
10:00 pm55 °FPassing clouds.14 mph67%29.89 "Hg4 mi
8:00 pm61 °FHaze.12 mph55%29.86 "Hg4 mi
Weather by CustomWeather, © 2017

See weather overviewHow to use our weather pages